Flint, MI

8:20 PM EDT on May 20, 2018 (GMT -0400)
Bishop International

Weather History for KFNT - August, 2013

Change the Weather History Date:

Thursday, August 29, 2013

  Actual Average Record
Temperature  
Mean Temperature 76 °F 67 °F  
Max Temperature 88 °F 78 °F 96 °F (1953)
Min Temperature 63 °F 56 °F 37 °F (1982)
Degree Days  
Heating Degree Days 0 2  
Month to date heating degree days 13 29  
Since 1 June heating degree days 63 110  
Since 1 July heating degree days 22 44  
Cooling Degree Days 11 3  
Month to date cooling degree days 147 140  
Year to date cooling degree days 649 471  
Since 1 June cooling degree days 570 439  
Growing Degree Days 26 (Base 50)    
Moisture  
Dew Point 64 °F    
Average Humidity 70    
Maximum Humidity 93    
Minimum Humidity 46    
Precipitation  
Precipitation 0.00 in 0.11 in 1.51 in (1975)
Month to date precipitation 2.57 2.96  
Year to date precipitation 25.58 20.34  
Snow  
Snow 0.00 in 0.00 in 0.00 in ()
Month to date snowfall 0.0 0.0  
Since 1 June snowfall 0.0 0.0  
Since 1 July snowfall 0.0 0.0  
Snow Depth 0.00 in    
Sea Level Pressure  
Sea Level Pressure 30.06 in    
Wind  
Wind Speed 2 mph (NNW)    
Max Wind Speed 10 mph    
Max Gust Speed 12 mph    
Visibility 4 miles    
Events Fog    
T = Trace of Precipitation, MM = Missing Value Source: NWS Daily Summary

Daily Weather History Graph

Daily Weather History Graph

Search for Another Location

Airport or City:

Astronomy

Aug. 29, 2013 Rise Set
Actual Time 6:56 AM EDT 8:14 PM EDT
Civil Twilight 6:27 AM EDT 8:43 PM EDT
Nautical Twilight 5:51 AM EDT 9:18 PM EDT
Astronomical Twilight 5:14 AM EDT 9:56 PM EDT
Moon 12:42 AM EDT (8/29) 3:46 PM EDT (8/29)
Length of Visible Light 14h 16m
Length of Day
13h 17m
Last Quarter, 38% of the Moon is Illuminated
Aug 29
Last Quarter
Sep 5
New
Sep 12
First Quarter
Sep 19
Full
Sep 26
Last Quarter

Hourly Weather History & Observations

Time (EDT) Temp. Heat Index Dew Point Humidity Pressure Visibility Wind Dir Wind Speed Gust Speed Precip Events Conditions
12:53 AM 68.0 °F - 64.9 °F 90% 30.03 in 5.0 mi Calm Calm - N/A   Clear
1:36 AM 66.2 °F - 62.6 °F 88% 30.05 in 2.5 mi Calm Calm - N/A   Clear
1:44 AM 64.4 °F - 62.6 °F 94% 30.05 in 0.8 mi Calm Calm - N/A   Clear
1:53 AM 64.0 °F - 62.1 °F 93% 30.03 in 1.2 mi Calm Calm - N/A   Clear
1:57 AM 62.6 °F - 60.8 °F 94% 30.04 in 3.0 mi Calm Calm - N/A   Clear
2:03 AM 62.6 °F - 60.8 °F 94% 30.04 in 1.5 mi Calm Calm - N/A   Clear
2:12 AM 64.4 °F - 62.6 °F 94% 30.04 in 0.5 mi Calm Calm - N/A Fog Fog
2:21 AM 64.4 °F - 62.6 °F 94% 30.04 in 2.5 mi Calm Calm - N/A   Clear
2:28 AM 64.4 °F - 62.6 °F 94% 30.04 in 5.0 mi NW 3.5 mph - N/A   Clear
2:37 AM 64.4 °F - 62.6 °F 94% 30.04 in 2.0 mi NNW 3.5 mph - N/A   Clear
2:46 AM 66.2 °F - 64.4 °F 94% 30.05 in 5.0 mi NNW 4.6 mph - N/A   Clear
2:53 AM 66.0 °F - 64.0 °F 93% 30.04 in 6.0 mi NNW 3.5 mph - N/A   Clear
3:48 AM 66.2 °F - 64.4 °F 94% 30.04 in 1.2 mi Calm Calm - N/A   Clear
3:53 AM 66.0 °F - 63.0 °F 90% 30.03 in 0.8 mi Calm Calm - N/A   Clear
4:01 AM 66.2 °F - 64.4 °F 94% 30.04 in 2.0 mi North 3.5 mph - N/A   Clear
4:09 AM 66.2 °F - 62.6 °F 88% 30.04 in 3.0 mi NNW 3.5 mph - N/A   Clear
4:43 AM 64.4 °F - 62.6 °F 94% 30.05 in 4.0 mi North 3.5 mph - N/A   Scattered Clouds
4:53 AM 64.9 °F - 63.0 °F 93% 30.04 in 3.0 mi Calm Calm - N/A   Mostly Cloudy
4:59 AM 64.4 °F - 62.6 °F 94% 30.05 in 1.8 mi Calm Calm - N/A   Mostly Cloudy
5:13 AM 64.4 °F - 62.6 °F 94% 30.05 in 0.8 mi Calm Calm - N/A   Overcast
5:31 AM 64.4 °F - 62.6 °F 94% 30.05 in 0.8 mi NW 3.5 mph - N/A   Mist
5:53 AM 64.0 °F - 62.1 °F 93% 30.05 in 0.5 mi NW 3.5 mph - N/A Fog Fog
6:08 AM 64.4 °F - 62.6 °F 94% 30.06 in 0.5 mi Calm Calm - N/A Fog Fog
6:51 AM 64.4 °F - 62.6 °F 94% 30.07 in 0.2 mi Calm Calm - N/A Fog Fog
6:53 AM 64.0 °F - 62.1 °F 93% 30.06 in 0.2 mi Calm Calm - N/A Fog Fog
7:53 AM 64.9 °F - 63.0 °F 93% 30.08 in 0.2 mi Calm Calm - N/A Fog Fog
8:43 AM 66.2 °F - 64.4 °F 94% 30.10 in 1.0 mi Calm Calm - N/A   Mist
8:51 AM 66.2 °F - 64.4 °F 94% 30.10 in 3.0 mi Calm Calm - N/A   Overcast
8:52 AM 66.0 °F - 64.0 °F 93% 30.09 in 0.5 mi NNW 3.5 mph - N/A Fog Fog
9:12 AM 66.2 °F - 64.4 °F 94% 30.10 in 1.0 mi Calm Calm - N/A   Overcast
9:19 AM 68.0 °F - 64.4 °F 88% 30.10 in 2.5 mi Calm Calm - N/A   Mostly Cloudy
9:27 AM 69.8 °F - 64.4 °F 83% 30.10 in 3.0 mi Calm Calm - N/A   Mostly Cloudy
9:42 AM 69.8 °F - 64.4 °F 83% 30.10 in 3.0 mi Calm Calm - N/A   Haze
9:53 AM 71.1 °F - 64.9 °F 81% 30.09 in 3.0 mi Calm Calm - N/A   Haze
10:06 AM 73.4 °F - 66.2 °F 78% 30.10 in 7.0 mi Calm Calm - N/A   Clear
10:53 AM 77.0 °F - 66.0 °F 69% 30.09 in 8.0 mi Calm Calm - N/A   Clear
11:53 AM 82.0 °F 84.5 °F 66.9 °F 60% 30.09 in 10.0 mi NE 3.5 mph - N/A   Clear
12:53 PM 84.0 °F 85.8 °F 64.9 °F 53% 30.08 in 10.0 mi Calm Calm - N/A   Clear
1:53 PM 86.0 °F 87.6 °F 64.9 °F 49% 30.07 in 10.0 mi Calm Calm - N/A   Partly Cloudy
2:53 PM 86.0 °F 87.6 °F 64.9 °F 49% 30.06 in 10.0 mi NNW 4.6 mph - N/A   Scattered Clouds
3:53 PM 88.0 °F 90.3 °F 66.0 °F 48% 30.05 in 10.0 mi Variable 4.6 mph - N/A   Scattered Clouds
4:53 PM 88.0 °F 89.6 °F 64.9 °F 46% 30.04 in 10.0 mi NNW 6.9 mph - N/A   Clear
5:53 PM 86.0 °F 87.6 °F 64.9 °F 49% 30.03 in 10.0 mi North 3.5 mph - N/A   Clear
6:53 PM 87.1 °F 88.3 °F 64.0 °F 46% 30.02 in 10.0 mi Calm Calm - N/A   Scattered Clouds
7:53 PM 82.9 °F 84.6 °F 64.9 °F 54% 30.03 in 10.0 mi Calm Calm - N/A   Partly Cloudy
8:53 PM 77.0 °F - 66.9 °F 71% 30.04 in 10.0 mi NNW 3.5 mph - N/A   Clear
9:53 PM 73.9 °F - 66.9 °F 79% 30.04 in 10.0 mi Calm Calm - N/A   Clear
10:53 PM 73.9 °F - 66.9 °F 79% 30.01 in 10.0 mi Calm Calm - N/A   Clear
11:53 PM 73.0 °F - 68.0 °F 84% 30.00 in 9.0 mi South 5.8 mph - N/A   Clear